AEN3LC EDDH-EKCH

Flight info

Callsign AEN3LC
Flight time 0h 35m
Altitude 21000
Route LUGEG3B LUGEG P605 GESKA Z711 MONAK
Aircraft A320/M-SDE3FGHIRWY/LB1

Departure

Time 2026-04-22 09:22
Airport Hamburg Helmut Schmidt Airport (EDDH)

Arrival

Time 2026-04-22 09:57
Airport Copenhagen Kastrup Airport (EKCH)
Time Latitude Longitude Altitude Speed Heading
2026-04-22 09:02 53.63245 10.00358 49 ft 0 kts 86°
2026-04-22 09:14 53.63245 10.00357 48 ft 0 kts 86°
2026-04-22 09:16 53.63244 10.00324 48 ft 4 kts 86°
2026-04-22 09:16 53.63242 10.00288 48 ft 4 kts 76°
2026-04-22 09:16 53.63230 10.00252 48 ft 4 kts 22°
2026-04-22 09:17 53.63217 10.00246 44 ft 0 kts 356°
2026-04-22 09:19 53.63228 10.00245 47 ft 6 kts 356°
2026-04-22 09:19 53.63268 10.00240 47 ft 5 kts 355°
2026-04-22 09:19 53.63307 10.00235 48 ft 9 kts 356°
2026-04-22 09:19 53.63404 10.00223 48 ft 16 kts 355°
2026-04-22 09:20 53.63508 10.00146 48 ft 17 kts 316°
2026-04-22 09:20 53.63537 10.00109 50 ft 0 kts 323°
2026-04-22 09:20 53.63539 10.00107 50 ft 2 kts 323°
2026-04-22 09:20 53.63572 10.00066 52 ft 10 kts 323°
2026-04-22 09:21 53.63592 9.99952 52 ft 13 kts 243°
2026-04-22 09:21 53.63507 9.99777 50 ft 36 kts 230°
2026-04-22 09:21 53.63163 9.99078 47 ft 112 kts 231°
2026-04-22 09:21 53.62547 9.97853 158 ft 155 kts 231°
2026-04-22 09:22 53.61870 9.96501 1053 ft 151 kts 232°
2026-04-22 09:22 53.61202 9.95122 1895 ft 155 kts 234°
2026-04-22 09:22 53.60526 9.93718 2696 ft 159 kts 234°
2026-04-22 09:22 53.59819 9.92251 3374 ft 166 kts 235°
2026-04-22 09:23 53.59051 9.90641 3939 ft 187 kts 233°
2026-04-22 09:23 53.58185 9.88848 4400 ft 209 kts 232°
2026-04-22 09:23 53.57249 9.86801 4994 ft 226 kts 243°
2026-04-22 09:23 53.56936 9.84230 5824 ft 230 kts 282°
2026-04-22 09:24 53.57637 9.81910 6623 ft 229 kts 322°
2026-04-22 09:24 53.59044 9.80811 7512 ft 224 kts 351°
2026-04-22 09:24 53.60581 9.80299 8435 ft 227 kts 353°
2026-04-22 09:24 53.62151 9.80348 9379 ft 225 kts 14°
2026-04-22 09:25 53.63644 9.81305 10090 ft 241 kts 32°
2026-04-22 09:25 53.64975 9.83236 10548 ft 265 kts 43°
2026-04-22 09:25 53.66402 9.85426 10951 ft 290 kts 41°
2026-04-22 09:25 53.68008 9.87728 11318 ft 314 kts 39°
2026-04-22 09:26 53.69730 9.90135 11920 ft 327 kts 39°
2026-04-22 09:26 53.71470 9.92649 12762 ft 332 kts 44°
2026-04-22 09:26 53.73022 9.95503 13622 ft 336 kts 47°
2026-04-22 09:26 53.74579 9.98472 14473 ft 339 kts 47°
2026-04-22 09:27 53.76144 10.01481 15256 ft 342 kts 47°
2026-04-22 09:27 53.77593 10.04684 16047 ft 346 kts 57°
2026-04-22 09:27 53.78683 10.08339 16832 ft 350 kts 64°
2026-04-22 09:27 53.79678 10.12104 17626 ft 352 kts 64°
2026-04-22 09:28 53.80685 10.15901 18384 ft 355 kts 63°
2026-04-22 09:28 53.81703 10.19740 19069 ft 358 kts 63°
2026-04-22 09:28 53.82728 10.23596 19722 ft 361 kts 63°
2026-04-22 09:28 53.83762 10.27483 20382 ft 363 kts 63°
2026-04-22 09:29 53.84787 10.31347 20999 ft 365 kts 63°
2026-04-22 09:29 53.85831 10.35290 21304 ft 367 kts 63°
2026-04-22 09:29 53.86880 10.39262 21381 ft 374 kts 63°
2026-04-22 09:29 53.87949 10.43312 21386 ft 378 kts 63°
2026-04-22 09:30 53.89020 10.47384 21386 ft 379 kts 63°
2026-04-22 09:30 53.90089 10.51469 21382 ft 379 kts 63°
2026-04-22 09:30 53.91157 10.55563 21386 ft 379 kts 63°
2026-04-22 09:30 53.92223 10.59654 21382 ft 379 kts 63°
2026-04-22 09:31 53.93303 10.63740 21382 ft 379 kts 61°
2026-04-22 09:31 53.94655 10.67553 21384 ft 376 kts 52°
2026-04-22 09:31 53.96355 10.70913 21382 ft 375 kts 45°
2026-04-22 09:31 53.98144 10.74145 21384 ft 376 kts 45°
2026-04-22 09:32 53.99908 10.77348 21384 ft 376 kts 45°
2026-04-22 09:32 54.01691 10.80601 21383 ft 376 kts 45°
2026-04-22 09:32 54.03474 10.83853 21383 ft 376 kts 45°
2026-04-22 09:32 54.05266 10.87122 21384 ft 376 kts 45°
2026-04-22 09:33 54.07046 10.90382 21382 ft 376 kts 45°
2026-04-22 09:33 54.08824 10.93646 21382 ft 376 kts 45°
2026-04-22 09:33 54.10602 10.96915 21379 ft 376 kts 45°
2026-04-22 09:33 54.12385 11.00193 21379 ft 376 kts 45°
2026-04-22 09:34 54.14138 11.03424 21378 ft 376 kts 45°
2026-04-22 09:34 54.15914 11.06708 21378 ft 377 kts 46°
2026-04-22 09:34 54.17690 11.09999 21374 ft 377 kts 46°
2026-04-22 09:35 54.21240 11.16602 21372 ft 377 kts 46°
2026-04-22 09:35 54.23009 11.19906 21371 ft 377 kts 46°
2026-04-22 09:35 54.24779 11.23226 21367 ft 377 kts 46°
2026-04-22 09:35 54.26550 11.26555 21369 ft 378 kts 46°
2026-04-22 09:36 54.28321 11.29881 21368 ft 378 kts 46°
2026-04-22 09:36 54.30092 11.33205 21362 ft 378 kts 46°
2026-04-22 09:36 54.31863 11.36530 21358 ft 378 kts 46°
2026-04-22 09:36 54.33612 11.39825 21360 ft 378 kts 46°
2026-04-22 09:37 54.35385 11.43173 21358 ft 378 kts 46°
2026-04-22 09:37 54.37155 11.46520 21356 ft 379 kts 46°
2026-04-22 09:37 54.38926 11.49862 21355 ft 379 kts 46°
2026-04-22 09:37 54.40701 11.53212 21352 ft 379 kts 46°
2026-04-22 09:38 54.42473 11.56565 21353 ft 379 kts 46°
2026-04-22 09:38 54.44249 11.59927 21349 ft 379 kts 45°
2026-04-22 09:38 54.46266 11.62806 21347 ft 377 kts 30°
2026-04-22 09:38 54.48634 11.64717 21347 ft 377 kts 23°
2026-04-22 09:39 54.51051 11.66493 21345 ft 377 kts 23°
2026-04-22 09:39 54.53438 11.68246 21342 ft 377 kts 23°
2026-04-22 09:39 54.55853 11.70024 21337 ft 378 kts 23°
2026-04-22 09:39 54.58268 11.71807 21340 ft 378 kts 23°
2026-04-22 09:40 54.60684 11.73595 21292 ft 376 kts 23°
2026-04-22 09:40 54.63059 11.75355 21023 ft 368 kts 23°
2026-04-22 09:40 54.65386 11.77079 20607 ft 360 kts 23°
2026-04-22 09:40 54.67668 11.78769 20146 ft 354 kts 23°
2026-04-22 09:41 54.69916 11.80437 19688 ft 350 kts 23°
2026-04-22 09:41 54.72137 11.82089 19226 ft 346 kts 23°
2026-04-22 09:41 54.74344 11.83729 18760 ft 343 kts 23°
2026-04-22 09:41 54.76526 11.85350 18247 ft 340 kts 22°
2026-04-22 09:42 54.78691 11.86962 17772 ft 337 kts 23°
2026-04-22 09:42 54.80806 11.88541 17297 ft 334 kts 22°
2026-04-22 09:42 54.82932 11.90131 16818 ft 331 kts 22°
2026-04-22 09:42 54.85044 11.91719 16343 ft 329 kts 23°
2026-04-22 09:43 54.87139 11.93297 15867 ft 327 kts 23°
2026-04-22 09:43 54.89225 11.94864 15380 ft 326 kts 22°
2026-04-22 09:43 54.91301 11.96421 14899 ft 325 kts 22°
2026-04-22 09:43 54.93378 11.97979 14415 ft 324 kts 22°
2026-04-22 09:44 54.95448 11.99534 13900 ft 324 kts 22°
2026-04-22 09:44 54.97512 12.01088 13386 ft 322 kts 23°
2026-04-22 09:44 54.99558 12.02631 12892 ft 319 kts 22°
2026-04-22 09:44 55.01594 12.04167 12385 ft 318 kts 22°
2026-04-22 09:45 55.03619 12.05700 11872 ft 316 kts 22°
2026-04-22 09:45 55.05637 12.07232 11383 ft 315 kts 22°
2026-04-22 09:45 55.07617 12.08738 10939 ft 312 kts 22°
2026-04-22 09:45 55.09569 12.10224 10819 ft 299 kts 22°
2026-04-22 09:46 55.11442 12.11649 10704 ft 288 kts 22°
2026-04-22 09:46 55.13247 12.13022 10558 ft 278 kts 22°
2026-04-22 09:46 55.14999 12.14354 10350 ft 272 kts 22°
2026-04-22 09:46 55.16728 12.15670 10182 ft 270 kts 22°
2026-04-22 09:47 55.18452 12.16982 10043 ft 270 kts 22°
2026-04-22 09:47 55.20182 12.18296 9701 ft 271 kts 22°
2026-04-22 09:47 55.21911 12.19612 9250 ft 270 kts 22°
2026-04-22 09:47 55.23617 12.20914 8800 ft 270 kts 22°
2026-04-22 09:48 55.25339 12.22234 8440 ft 268 kts 22°
2026-04-22 09:48 55.27049 12.23543 7963 ft 266 kts 22°
2026-04-22 09:48 55.28739 12.24838 7461 ft 265 kts 22°
2026-04-22 09:48 55.30436 12.26135 6997 ft 267 kts 22°
2026-04-22 09:49 55.32139 12.27441 6525 ft 267 kts 22°
2026-04-22 09:49 55.33842 12.28753 6072 ft 267 kts 22°
2026-04-22 09:49 55.35556 12.30076 5381 ft 270 kts 21°
2026-04-22 09:49 55.37242 12.31379 4846 ft 258 kts 21°
2026-04-22 09:50 55.38845 12.32618 4472 ft 243 kts 21°
2026-04-22 09:50 55.40296 12.33745 4424 ft 220 kts 21°
2026-04-22 09:50 55.41625 12.34779 4364 ft 201 kts 20°
2026-04-22 09:50 55.42894 12.35777 4258 ft 201 kts 23°
2026-04-22 09:51 55.44059 12.37156 4007 ft 203 kts 33°
2026-04-22 09:51 55.45148 12.38749 3744 ft 204 kts 36°
2026-04-22 09:51 55.46225 12.40387 3472 ft 204 kts 36°
2026-04-22 09:51 55.47276 12.41998 3187 ft 193 kts 35°
2026-04-22 09:52 55.48234 12.43471 2959 ft 172 kts 35°
2026-04-22 09:52 55.49081 12.44772 2756 ft 151 kts 34°
2026-04-22 09:52 55.49823 12.45910 2535 ft 136 kts 33°
2026-04-22 09:52 55.50515 12.46969 2353 ft 128 kts 33°
2026-04-22 09:53 55.51180 12.47985 2180 ft 125 kts 33°
2026-04-22 09:53 55.51513 12.48496 2099 ft 124 kts 33°
2026-04-22 09:53 55.52165 12.49495 1922 ft 124 kts 33°
2026-04-22 09:53 55.52816 12.50493 1744 ft 124 kts 33°
2026-04-22 09:54 55.53469 12.51494 1568 ft 125 kts 33°
2026-04-22 09:54 55.54129 12.52507 1405 ft 126 kts 34°
2026-04-22 09:54 55.54780 12.53506 1262 ft 126 kts 34°
2026-04-22 09:54 55.55440 12.54529 1058 ft 127 kts 34°
2026-04-22 09:55 55.56112 12.55558 855 ft 129 kts 36°
2026-04-22 09:55 55.56791 12.56605 717 ft 129 kts 34°
2026-04-22 09:55 55.57468 12.57648 481 ft 129 kts 37°
2026-04-22 09:55 55.58149 12.58687 335 ft 131 kts 35°
2026-04-22 09:56 55.58824 12.59735 177 ft 128 kts 34°
2026-04-22 09:56 55.59489 12.60768 31 ft 123 kts 35°
2026-04-22 09:56 55.60026 12.61576 19 ft 79 kts 43°
2026-04-22 09:56 55.60351 12.62092 17 ft 55 kts 41°
2026-04-22 09:57 55.60617 12.62504 20 ft 48 kts 41°
2026-04-22 09:57 55.60837 12.62795 19 ft 30 kts 20°
2026-04-22 09:57 55.61034 12.62887 17 ft 17 kts 11°
2026-04-22 09:57 55.61045 12.62891 17 ft 0 kts 11°
2026-04-22 09:59 55.61072 12.62901 17 ft 11 kts 12°
2026-04-22 09:59 55.61175 12.62998 18 ft 21 kts 38°
2026-04-22 09:59 55.61291 12.63175 18 ft 23 kts 40°
2026-04-22 09:59 55.61415 12.63370 17 ft 24 kts 41°
2026-04-22 10:00 55.61545 12.63568 17 ft 25 kts 41°
2026-04-22 10:00 55.61677 12.63773 18 ft 26 kts 40°
2026-04-22 10:00 55.61811 12.63984 17 ft 26 kts 40°
2026-04-22 10:00 55.61965 12.64144 17 ft 26 kts 24°
2026-04-22 10:01 55.62129 12.64288 17 ft 26 kts 26°
2026-04-22 10:01 55.62301 12.64409 17 ft 26 kts 15°
2026-04-22 10:01 55.62453 12.64498 17 ft 20 kts 51°
2026-04-22 10:01 55.62511 12.64650 17 ft 16 kts
2026-04-22 10:02 55.62622 12.64662 17 ft 16 kts
2026-04-22 10:02 55.62686 12.64640 18 ft 9 kts 303°
2026-04-22 10:02 55.62693 12.64600 19 ft 1 kts 283°
2026-04-22 10:02 55.62695 12.64589 18 ft 1 kts 282°
2026-04-22 10:03 55.62696 12.64578 17 ft 0 kts 282°
2026-04-22 10:03 55.62696 12.64577 17 ft 0 kts 282°
2026-04-22 10:05 55.62696 12.64578 17 ft 0 kts 282°